BEIJING 1

Last updated on Tue Dec 03 2024 00:02:32 GMT+0000 (Coordinated Universal Time)

1 28890U 05043A 24337.59496199 .00001287 00000+0 26137-3 0 9999 2 28890 98.2205 99.4821 0013756 236.8166 123.1717 14.62803425 18525
UTC large
Height (km)
Speed (km/s)
/
Latitude / Longitude
Inclination (degrees)
Orbital Period (minutes)
Azimuth
Elevation
Range (km)
Doppler Factor

Next 0 passes for location: London (51.5072 / 0.1276)

Sorry there are no passes over London.